Home   Weather   Tchibanga   Past weeks
Flag for Gabon

Past Weather in Tchibanga, Gabon — Yesterday and Last 2 Weeks

Now
77 °F

Passing clouds.


Feels Like: 78 °F
Forecast: 88 / 75 °F
Wind: 5 mph from Southeast

Location: Pointe Airport-Noire

Current Time: May 23, 2019 at 1:58:14 am

Latest Report: May 23, 2019 at 1:00 am


Visibility: 5 mi

Pressure: 29.86 "Hg

Humidity: 94%

Dew Point: 75 °F

Location of TchibangaLocation

Past Weather in Tchibanga — Graph

°F

Tchibanga Temperature Yesterday

Maximum temperature yesterday: 86 °F (at 12:00 pm)
Minimum temperature yesterday: 77 °F (at 2:00 am)
Average temperature yesterday: 80 °F

High & Low Weather Summary for the Past Weeks

 TemperatureHumidityPressure
High86 °F (May 16, 3:00 pm)100% (May 16, 9:00 pm)29.92 "Hg (May 16, 9:00 pm)
Low77 °F (May 17, 3:00 am)66% (May 17, 11:00 am)29.74 "Hg (May 16, 4:00 pm)
Average81 °F90%29.85 "Hg
* Reported May 15 12:00 pm — May 23 1:00 am, Tchibanga. Weather by CustomWeather, © 2019

Note: Actual official high and low records may vary slightly from our data, if they occured in-between our weather recording intervals... More about our weather records

Advertising

Tchibanga Weather History for the Previous 24 Hours

Scroll right to see more
 ConditionsComfort  
Time TempWeatherWind HumidityBarometerVisibility
1:00 am
Thu, May 23
77 °FPassing clouds.5 mph94%29.86 "Hg5 mi
12:00 am77 °FPassing clouds.5 mph94%29.89 "Hg5 mi
11:00 pm
Wed, May 22
77 °FPassing clouds.6 mph100%29.89 "HgN/A
10:00 pm77 °FPassing clouds.7 mph94%29.89 "Hg5 mi
9:00 pm79 °FPassing clouds.8 mph94%29.86 "Hg5 mi
8:00 pm79 °FPassing clouds.9 mph94%29.86 "HgN/A
6:00 pm81 °FScattered clouds.12 mph89%29.83 "HgN/A
5:00 pm81 °FScattered clouds.9 mph89%29.80 "HgN/A
4:00 pm82 °FScattered clouds.10 mph84%29.80 "HgN/A
3:00 pm82 °FPartly sunny.9 mph84%29.83 "HgN/A
2:00 pm84 °FPartly sunny.10 mph74%29.86 "HgN/A
1:00 pm84 °FBroken clouds.9 mph74%29.89 "HgN/A
12:00 pm86 °FBroken clouds.7 mph70%29.89 "HgN/A
11:00 am84 °FBroken clouds.1 mph74%29.92 "HgN/A
10:00 am82 °FBroken clouds.3 mph79%29.92 "HgN/A
9:00 am81 °FBroken clouds.5 mph89%29.92 "HgN/A
8:00 am81 °FScattered clouds.2 mph89%29.89 "Hg4 mi
7:00 am77 °FScattered clouds.1 mph100%29.89 "Hg4 mi
6:00 am77 °FPassing clouds.No wind100%29.86 "Hg4 mi
5:00 am77 °FPartly cloudy.3 mph100%29.86 "Hg4 mi
4:00 am77 °FPartly cloudy.No wind94%29.86 "Hg4 mi
3:00 am77 °FPartly cloudy.2 mph100%29.86 "Hg4 mi
2:00 am77 °FPartly cloudy.3 mph94%29.86 "HgN/A
Weather by CustomWeather, © 2019

See weather overview